Location: Sternwarte Hubelmatt
(47.0367°N, 8.3053°E)
Time: 01:11:26
(UTC+02:00)

CAS-4A - Visible Passes

Search period start: 24 April 2024 00:00
Search period end: 04 May 2024 00:00
Orbit: 479 x 495 km, 43.0° (Epoch: 23 April)

Date Brightness Start Highest point End Pass type
(mag) Time Alt. Az. Time Alt. Az. Time Alt. Az.
24 Apr ? 03:04:55 11° E 03:04:55 11° E 03:05:03 10° E visible
24 Apr ? 04:39:14 35° SW 04:40:19 46° S 04:44:00 10° ESE visible
25 Apr ? 04:13:59 46° S 04:13:59 46° S 04:17:37 10° ESE visible
26 Apr ? 03:48:47 32° SE 03:48:47 32° SE 03:51:11 10° ESE visible
26 Apr ? 05:23:06 12° WSW 05:26:10 30° SSW 05:29:31 10° SE visible
27 Apr ? 03:23:39 17° ESE 03:23:39 17° ESE 03:24:42 10° ESE visible
27 Apr ? 04:58:00 21° WSW 04:59:41 30° SSW 05:03:02 10° SE visible
28 Apr ? 04:33:01 30° SSW 04:33:09 30° SSW 04:36:31 10° SE visible
29 Apr ? 04:08:16 21° SSE 04:08:16 21° SSE 04:09:56 10° SE visible
30 Apr ? 05:18:13 10° SW 05:18:13 10° SW 05:18:48 10° SSW visible
02 May ? 22:59:13 10° SW 22:59:25 11° SW 22:59:25 11° SW visible
03 May ? 22:32:25 10° SW 22:35:00 27° S 22:35:00 27° S visible
